User: anonymous   Login
Location: Unspecified
(0.0000°N, 0.0000°E)
Time: 22:17:42
(UTC+00:00)
Language:

COSMOS 2573 - Orbit

View from above orbital plane
View from above orbital plane
View from above satellite
View from above satellite

Ground track
Ground track

The orbit is defined by the following mean orbital elements,

1 58614U          26145.60840720 +.00000000 +00000-0 +14490-3 0 00003
2 58614  97.6260  94.6374 0003094  96.5435 263.6154 15.24699980    07
Epoch (UTC): 25 May 2026 14:36:06
Eccentricity: 0.0003094
inclination: 97.6260°
perigee height: 490 km
apogee height: 494 km
right ascension of ascending node: 94.6374°
argument of perigee: 96.5435°
revolutions per day: 15.24699980
mean anomaly at epoch: 263.6154°

The dashed part of the orbit path shows where the satellite is in the earth's shadow,  

DLR